Flag for U.S.A. Weather past 2 weeks in Greeley, Colorado, U.S.A.

Now
66 °F

Passing clouds.


Feels Like: 66 °F
Forecast: 48 / 61 °F
Wind: 6 mph from Northwest

Location: Greeley / Weld

Current Time: May 6, 2015 at 5:35:57 PM

Latest Report: May 6, 2015 at 4:55 PM


Visibility: 10 mi

Pressure: 29.66 "Hg

Humidity: 94%

Dew point: 64 °F

Location of GreeleyLocation

Historic Weather in Greeley — Graph

°F

Greeley temperature yesterday

Maximum temperature yesterday: 54 °F (at 11:55 AM)
Minimum temperature yesterday: 46 °F (at 12:15 AM)
Average temperature yesterday: 50 °F

Past Weeks' High & Low Weather Summary

 TemperatureHumidityPressure
High81 °F (Apr 30, 12:15 PM)100% (May 6, 3:15 PM)30.37 "Hg (May 6, 3:15 PM)
Low34 °F (Apr 22, 5:15 AM)18% (Apr 29, 4:15 PM)29.62 "Hg (Apr 24, 2:55 PM)
Average53 °F61%29.98 "Hg
* Reported Apr 21 4:15 PM — May 6 4:35 PM, Greeley, Weather by CustomWeather, © 2015

Note: Actual official high and low records may vary slightly from our data, if they occured in-between our weather recording intervals... More about our weather records

Advertising

Greeley weather history for previous 24 hours

 ConditionsComfort  
Time TempWeatherWind HumidityBarometerVisibility
4:35 PM
Wed, May 6
66 °FPassing clouds.9 mph100%29.66 "Hg10 mi
4:15 PM63 °FBroken clouds.3 mph100%29.67 "Hg10 mi
3:55 PM64 °FBroken clouds.7 mph100%29.67 "Hg10 mi
3:15 PM68 °FSunny.9 mph100%29.67 "Hg10 mi
2:55 PM64 °FSunny.7 mphN/A29.67 "Hg10 mi
2:35 PM64 °FSunny.8 mphN/A29.67 "Hg10 mi
2:15 PM61 °FSunny.7 mphN/A29.67 "Hg10 mi
1:55 PM59 °FSunny.6 mphN/A29.67 "Hg8 mi
1:35 PM61 °FSunny.7 mphN/A29.67 "Hg10 mi
1:15 PM61 °FCool.7 mphN/A29.68 "Hg10 mi
10:15 PM
Tue, May 5
52 °FOvercast.12 mph82%29.78 "Hg10 mi
9:55 PM52 °FOvercast.12 mph82%29.79 "Hg6 mi
9:15 PM52 °FMostly cloudy.10 mph82%29.80 "Hg10 mi
8:55 PM52 °FBroken clouds.9 mph82%29.80 "Hg10 mi
8:35 PM52 °FMostly cloudy.7 mph82%29.80 "Hg10 mi
8:15 PM52 °FBroken clouds.7 mph82%29.81 "Hg10 mi
7:55 PM52 °FPartly sunny.7 mph82%29.81 "Hg10 mi
7:35 PM52 °FScattered clouds.7 mph82%29.81 "Hg10 mi
7:15 PM54 °FScattered clouds.10 mph77%29.82 "Hg10 mi
6:55 PM54 °FScattered clouds.10 mph77%29.82 "Hg10 mi
6:35 PM54 °FSunny.9 mph82%29.82 "Hg10 mi
6:15 PM54 °FPassing clouds.8 mph82%29.83 "Hg10 mi
5:55 PM54 °FBroken clouds.12 mph82%29.84 "Hg10 mi
5:35 PM54 °FPartly sunny.12 mph82%29.84 "Hg10 mi
5:15 PM54 °FPartly sunny.12 mph82%29.85 "Hg10 mi
Weather by CustomWeather, © 2015

See weather overviewHow to use our weather pages